Cody, WY

8:41 AM MDT on May 25, 2017 (GMT -0600)
Yellowstone Regional

Weather History for KCOD - October, 2012

Change the Weather History Date:

Wednesday, October 17, 2012

  Actual Average Record
Temperature  
Mean Temperature 42 °F -  
Max Temperature 50 °F 59 °F 81 °F (1927)
Min Temperature 33 °F 33 °F 6 °F (1925)
Degree Days  
Heating Degree Days 24    
Moisture  
Dew Point 13 °F    
Average Humidity 31    
Maximum Humidity 48    
Minimum Humidity 20    
Precipitation  
Precipitation 0.00 in - - ()
Sea Level Pressure  
Sea Level Pressure 29.94 in    
Wind  
Wind Speed 12 mph (WNW)    
Max Wind Speed 22 mph    
Max Gust Speed 34 mph    
Visibility 10 miles    
Events      
Averages and records for this station are not official NWS values.
T = Trace of Precipitation, MM = Missing Value Source: NWS Daily Summary

Daily Weather History Graph

Daily Weather History Graph

Search for Another Location

Airport or City:

Trip Planner

Search our weather history database for the weather conditions in past years. The results will help you decide how hot, cold, wet, or windy it might be!

Date:

Astronomy

Oct. 17, 2012 Rise Set
Actual Time 7:34 AM MDT 6:27 PM MDT
Civil Twilight 7:05 AM MDT 6:56 PM MDT
Nautical Twilight 6:31 AM MDT 7:30 PM MDT
Astronomical Twilight 5:57 AM MDT 8:04 PM MDT
Moon 10:19 AM MDT (10/17) 7:58 PM MDT (10/17)
Length of Visible Light 11h 51m
Length of Day
10h 52m
Waxing Crescent, 7% of the Moon is Illuminated
Oct 17
Waxing Crescent
Oct 21
First Quarter
Oct 29
Full
Nov 6
Last Quarter
Nov 13
New

Hourly Weather History & Observations

Time (MDT) Temp. Windchill Dew Point Humidity Pressure Visibility Wind Dir Wind Speed Gust Speed Precip Events Conditions
12:15 AM 44.6 °F 37.8 °F 8.6 °F 23% 29.80 in 10.0 mi West 15.0 mph 23.0 mph N/A   Clear
12:35 AM 44.6 °F 38.4 °F 10.4 °F 25% 29.81 in 10.0 mi West 12.7 mph 25.3 mph N/A   Clear
12:55 AM 44.6 °F 36.9 °F 10.4 °F 25% 29.81 in 10.0 mi West 18.4 mph 32.2 mph N/A   Clear
1:15 AM 42.8 °F 35.1 °F 10.4 °F 27% 29.82 in 10.0 mi WNW 16.1 mph 24.2 mph N/A   Clear
1:35 AM 42.8 °F 37.0 °F 10.4 °F 27% 29.83 in 10.0 mi WNW 10.4 mph 20.7 mph N/A   Clear
1:55 AM 42.8 °F 35.1 °F 10.4 °F 27% 29.83 in 10.0 mi WNW 16.1 mph 19.6 mph N/A   Clear
2:15 AM 42.8 °F 36.6 °F 12.2 °F 29% 29.83 in 10.0 mi WNW 11.5 mph 25.3 mph N/A   Clear
2:35 AM 42.8 °F 35.4 °F 10.4 °F 27% 29.83 in 10.0 mi West 15.0 mph 18.4 mph N/A   Clear
3:15 AM 42.8 °F 37.0 °F 10.4 °F 27% 29.85 in 10.0 mi WNW 10.4 mph 23.0 mph N/A   Clear
3:35 AM 41.0 °F 34.7 °F 12.2 °F 31% 29.86 in 10.0 mi West 10.4 mph 19.6 mph N/A   Clear
3:55 AM 41.0 °F 34.3 °F 10.4 °F 29% 29.87 in 10.0 mi West 11.5 mph 23.0 mph N/A   Clear
4:15 AM 39.2 °F 30.8 °F 12.2 °F 33% 29.88 in 10.0 mi West 15.0 mph 21.9 mph N/A   Clear
4:35 AM 41.0 °F 32.2 °F 12.2 °F 31% 29.88 in 10.0 mi West 18.4 mph 24.2 mph N/A   Clear
4:55 AM 39.2 °F 30.5 °F 12.2 °F 33% 29.89 in 10.0 mi West 16.1 mph 24.2 mph N/A   Clear
5:15 AM 39.2 °F 33.0 °F 15.8 °F 39% 29.92 in 10.0 mi West 9.2 mph 20.7 mph N/A   Partly Cloudy
5:35 AM 39.2 °F 33.6 °F 15.8 °F 39% 29.92 in 10.0 mi West 8.1 mph - N/A   Mostly Cloudy
5:55 AM 39.2 °F 35.0 °F 15.8 °F 39% 29.92 in 10.0 mi West 5.8 mph - N/A   Overcast
6:15 AM 39.2 °F 35.0 °F 14.0 °F 36% 29.92 in 10.0 mi WNW 5.8 mph - N/A   Overcast
6:35 AM 37.4 °F 33.8 °F 14.0 °F 38% 29.92 in 10.0 mi North 4.6 mph - N/A   Overcast
6:55 AM 35.6 °F - 14.0 °F 41% 29.91 in 10.0 mi Calm Calm - N/A   Scattered Clouds
7:15 AM 37.4 °F 32.8 °F 12.2 °F 36% 29.91 in 10.0 mi WNW 5.8 mph - N/A   Clear
7:35 AM 35.6 °F 32.8 °F 12.2 °F 38% 29.91 in 10.0 mi West 3.5 mph - N/A   Clear
7:55 AM 37.4 °F 32.8 °F 12.2 °F 36% 29.91 in 10.0 mi West 5.8 mph - N/A   Clear
8:35 AM 39.2 °F 37.0 °F 14.0 °F 36% 29.92 in 10.0 mi WNW 3.5 mph - N/A   Clear
8:55 AM 41.0 °F - 14.0 °F 33% 29.93 in 10.0 mi Calm Calm - N/A   Clear
9:15 AM 42.8 °F 39.3 °F 12.2 °F 29% 29.94 in 10.0 mi West 5.8 mph - N/A   Clear
9:35 AM 42.8 °F 39.3 °F 12.2 °F 29% 29.94 in 10.0 mi WSW 5.8 mph - N/A   Clear
9:55 AM 42.8 °F 38.0 °F 15.8 °F 34% 29.94 in 10.0 mi West 8.1 mph - N/A   Clear
10:15 AM 44.6 °F 39.7 °F 15.8 °F 31% 29.94 in 10.0 mi WSW 9.2 mph - N/A   Partly Cloudy
10:35 AM 44.6 °F 38.1 °F 15.8 °F 31% 29.94 in 10.0 mi West 13.8 mph 18.4 mph N/A   Partly Cloudy
11:15 AM 44.6 °F 38.1 °F 12.2 °F 27% 29.93 in 10.0 mi WNW 13.8 mph 24.2 mph N/A   Partly Cloudy
11:35 AM 46.4 °F 39.5 °F 12.2 °F 25% 29.93 in 10.0 mi NW 17.3 mph 34.5 mph N/A   Scattered Clouds
11:55 AM 46.4 °F 39.0 °F 12.2 °F 25% 29.93 in 10.0 mi WNW 19.6 mph 32.2 mph N/A   Mostly Cloudy
12:15 PM 44.6 °F 36.6 °F 12.2 °F 27% 29.93 in 10.0 mi WNW 19.6 mph 28.8 mph N/A   Mostly Cloudy
12:35 PM 46.4 °F 39.5 °F 14.0 °F 27% 29.93 in 10.0 mi WNW 17.3 mph 28.8 mph N/A   Overcast
12:55 PM 46.4 °F 38.5 °F 12.2 °F 25% 29.93 in 10.0 mi WNW 21.9 mph 31.1 mph N/A   Mostly Cloudy
1:35 PM 46.4 °F 39.2 °F 12.2 °F 25% 29.92 in 10.0 mi NW 18.4 mph 32.2 mph N/A   Mostly Cloudy
1:55 PM 46.4 °F 38.5 °F 12.2 °F 25% 29.92 in 10.0 mi NW 21.9 mph 31.1 mph N/A   Overcast
2:15 PM 48.2 °F - 12.2 °F 24% 29.91 in 10.0 mi WNW 20.7 mph 31.1 mph N/A   Mostly Cloudy
2:35 PM 48.2 °F - 12.2 °F 24% 29.91 in 10.0 mi West 17.3 mph 27.6 mph N/A   Mostly Cloudy
2:55 PM 48.2 °F - 12.2 °F 24% 29.92 in 10.0 mi NW 16.1 mph 33.4 mph N/A   Mostly Cloudy
3:15 PM 48.2 °F - 12.2 °F 24% 29.92 in 10.0 mi WNW 21.9 mph 32.2 mph N/A   Scattered Clouds
3:35 PM 48.2 °F - 12.2 °F 24% 29.92 in 10.0 mi WNW 20.7 mph 31.1 mph N/A   Mostly Cloudy
3:55 PM 48.2 °F - 12.2 °F 24% 29.92 in 10.0 mi WNW 13.8 mph 24.2 mph N/A   Mostly Cloudy
4:15 PM 50.0 °F - 12.2 °F 22% 29.92 in 10.0 mi NW 13.8 mph 25.3 mph N/A   Scattered Clouds
4:35 PM 50.0 °F - 12.2 °F 22% 29.92 in 10.0 mi NW 15.0 mph 23.0 mph N/A   Scattered Clouds
4:55 PM 50.0 °F - 14.0 °F 24% 29.93 in 10.0 mi WNW 13.8 mph 18.4 mph N/A   Mostly Cloudy
5:15 PM 50.0 °F - 12.2 °F 22% 29.93 in 10.0 mi NW 18.4 mph 25.3 mph N/A   Mostly Cloudy
5:55 PM 48.2 °F - 10.4 °F 22% 29.94 in 10.0 mi NW 18.4 mph 26.5 mph N/A   Partly Cloudy
6:15 PM 48.2 °F - 8.6 °F 20% 29.95 in 10.0 mi NW 17.3 mph 24.2 mph N/A   Clear
6:35 PM 46.4 °F 40.7 °F 10.4 °F 23% 29.96 in 10.0 mi NW 12.7 mph 18.4 mph N/A   Clear
7:15 PM 46.4 °F 41.9 °F 10.4 °F 23% 29.98 in 10.0 mi NW 9.2 mph - N/A   Clear
7:35 PM 42.8 °F 38.0 °F 10.4 °F 27% 29.99 in 10.0 mi North 8.1 mph - N/A   Clear
7:55 PM 39.2 °F 32.0 °F 12.2 °F 33% 30.01 in 10.0 mi North 11.5 mph 17.3 mph N/A   Clear
8:15 PM 39.2 °F 35.0 °F 14.0 °F 36% 30.02 in 10.0 mi South 5.8 mph - N/A   Clear
8:35 PM 39.2 °F 35.9 °F 14.0 °F 36% 30.03 in 10.0 mi SSW 4.6 mph - N/A   Clear
8:55 PM 39.2 °F - 14.0 °F 36% 30.05 in 10.0 mi Calm Calm - N/A   Clear
9:15 PM 37.4 °F 32.1 °F 15.8 °F 41% 30.06 in 10.0 mi North 6.9 mph - N/A   Clear
9:35 PM 37.4 °F 32.1 °F 15.8 °F 41% 30.07 in 10.0 mi North 6.9 mph - N/A   Clear
9:56 PM 37.4 °F 33.8 °F 15.8 °F 41% 30.09 in 10.0 mi NNW 4.6 mph - N/A   Clear
10:15 PM 35.6 °F 31.7 °F 15.8 °F 44% 30.09 in 10.0 mi NNW 4.6 mph - N/A   Clear
10:35 PM 35.6 °F 28.0 °F 15.8 °F 44% 30.10 in 10.0 mi North 10.4 mph - N/A   Clear
10:56 PM 35.6 °F 30.7 °F 15.8 °F 44% 30.10 in 10.0 mi NNE 5.8 mph - N/A   Clear
11:15 PM 33.8 °F 27.0 °F 15.8 °F 48% 30.11 in 10.0 mi North 8.1 mph - N/A   Clear
11:35 PM 33.8 °F 27.7 °F 15.8 °F 48% 30.12 in 10.0 mi North 6.9 mph - N/A   Clear
11:55 PM 33.8 °F 28.6 °F 15.8 °F 48% 30.13 in 10.0 mi NNW 5.8 mph - N/A   Clear